Погода в Ваулове

Россия / Владимирская область     56˚07′54″N   39˚17′03″E
темп.,
°C
ветер,
м/с
пор.,
м/с
влажн.,
%
обл.,
%
осадки,
мм/ч
давл.,
гПа
погр.,
м
17 января, вс
вс1700:00−19˚ссз4894100 0.3 1007476
03:00−20˚ссз3895100 0.4 1009399
06:00−22˚ссз3896100 0.1 1011320
09:00−24˚ссз389799 0.1 1013228
12:00−21˚с369586 0.0 1015248
15:00−20˚с249576 0.0 1016225
18:00−23˚с22970 0.0 101720
21:00−24˚ссз12980 0.0 101920
18 января, пн
пн1800:00−24˚ссз119823 0.0 101920
03:00−24˚сз119722 0.0 102020
06:00−24˚зюз119844 0.0 101920
09:00−24˚зюз229851 0.0 102029
12:00−18˚зюз129143 0.0 1019130
15:00−17˚юз129452 0.0 101942
18:00−21˚юз129875 0.0 101920
21:00−21˚з119975 0.0 101920
19 января, вт
вт1900:00−21˚зсз1110080 0.0 101820
03:00−20˚зсз119990 0.0 101820
06:00−19˚ю0098100 0.1 101720
09:00−18˚сз1198100 0.2 101720
12:00−15˚с129299 0.1 1017214
15:00−14˚вюв019399 0.2 1016186
18:00−17˚с119795 0.1 101720
21:00−18˚ссв119888 0.1 101720
20 января, ср
ср2000:00−17˚сз129792 0.1 101821
03:00−17˚сз119789 0.1 101920
06:00−18˚сз129883 0.1 101920
09:00−17˚зсз129883 0.1 102020
12:00−14˚зсз239585 0.0 1021169
15:00−13˚з249686 0.1 1021207
18:00−16˚з229873 0.0 102220
21:00−17˚зюз239851 0.0 102225
21 января, чт
чт2100:00−17˚зюз239820 0.0 102257
03:00−18˚юз359839 0.0 102397
06:00−18˚юз379893 0.0 1021135
09:00−16˚ююз399696 0.0 1020210
12:00−13˚ююз4892100 0.0 1018260
15:00−11˚ю51094100 0.1 1016352
18:00−9˚юз51194100 0.9 1014601
21:00−8˚юз41094100 1.8 1013542